�N����,����,�g�[���i���ԁj���x,�g�[�����x,��g�[���i���ցj���x,����
 2003/09/01, 0:00,27.7,67,29.7,27.3
 2003/09/01, 0:15,28.2,70.5,29.5,27.4
 2003/09/01, 0:30,28.5,71,29.3,27.4
 2003/09/01, 0:45,28.9,71,29.3,27.4
 2003/09/01, 1:00,29,71,29.3,27.5
 2003/09/01, 1:15,29.1,71,29.3,27.5
 2003/09/01, 1:30,29.2,71,29.2,27.5
 2003/09/01, 1:45,29.2,71,29.2,27.5
 2003/09/01, 2:00,29.3,70,29.1,27.6
 2003/09/01, 2:15,29.3,70,29.1,27.6
 2003/09/01, 2:30,29.4,69,29.1,27.6
 2003/09/01, 2:45,29.4,69.5,29.1,27.6
 2003/09/01, 3:00,29.4,70,29.1,27.7
 2003/09/01, 3:15,29.4,70,29,27.7
 2003/09/01, 3:30,29.4,69,29,27.7
 2003/09/01, 3:45,29.4,69.5,29,27.7
 2003/09/01, 4:00,29.4,69,28.9,27.8
 2003/09/01, 4:15,29.4,69.5,28.9,27.8
 2003/09/01, 4:30,29.4,69,28.8,27.8
 2003/09/01, 4:45,29.4,69.5,28.9,27.9
 2003/09/01, 5:00,29.4,70,28.9,27.9
 2003/09/01, 5:15,29.4,70,28.8,27.9
 2003/09/01, 5:30,29.3,70,28.8,27.9
 2003/09/01, 5:45,29.4,70,28.7,27.9
 2003/09/01, 6:00,29.4,70,28.7,28
 2003/09/01, 6:15,29.4,70,28.6,28
 2003/09/01, 6:30,29.4,70,28.6,28
 2003/09/01, 6:45,28.9,77,28.6,28
 2003/09/01, 7:00,29,78,28.6,25.6
 2003/09/01, 7:15,29.3,74.5,28.6,25.5
 2003/09/01, 7:30,29.4,73,28.7,25.6
 2003/09/01, 7:45,29.6,73.5,28.7,25.6
 2003/09/01, 8:00,29.8,74,28.8,25.7
 2003/09/01, 8:15,30.1,72.5,28.8,25.8
 2003/09/01, 8:30,30.5,70,28.9,25.8
 2003/09/01, 8:45,30.7,67.5,29,25.9
 2003/09/01, 9:00,30.7,67,29,25.9
 2003/09/01, 9:15,30.5,68,29.1,25.9
 2003/09/01, 9:30,30.5,68,29.2,26
 2003/09/01, 9:45,30.6,68,29.3,26
 2003/09/01,10:00,30.8,68,29.4,26
 2003/09/01,10:15,30.9,68,29.6,26.1
 2003/09/01,10:30,31,68,29.8,26.1
 2003/09/01,10:45,31.1,67,30,26.1
 2003/09/01,11:00,31.3,67,30.1,26.2
 2003/09/01,11:15,31.5,67,30.2,26.2
 2003/09/01,11:30,31.7,67,30.5,26.3
 2003/09/01,11:45,31.9,66,30.6,26.3
 2003/09/01,12:00,32.1,66,30.8,26.4
 2003/09/01,12:15,32.2,66,30.9,26.4
 2003/09/01,12:30,32.3,66,31,26.4
 2003/09/01,12:45,32.5,65.5,31,26.5
 2003/09/01,13:00,32.6,65,31,26.5
 2003/09/01,13:15,32.8,65,31.1,26.6
 2003/09/01,13:30,32.8,65,31.1,26.6
 2003/09/01,13:45,32.8,65,31.3,26.6
 2003/09/01,14:00,33,65,31.3,26.7
 2003/09/01,14:15,33,65,31.3,26.7
 2003/09/01,14:30,33.1,65,31.3,26.8
 2003/09/01,14:45,33.1,65,31.4,26.8
 2003/09/01,15:00,33.2,65,31.4,26.9
 2003/09/01,15:15,33.2,65,31.4,26.9
 2003/09/01,15:30,33.3,65,31.4,27
 2003/09/01,15:45,33.3,64,31.4,27
 2003/09/01,16:00,33.4,65,31.4,27
 2003/09/01,16:15,33.4,65,31.4,27
 2003/09/01,16:30,33.4,65,31.4,27.1
 2003/09/01,16:45,33.5,65,31.4,27.1
 2003/09/01,17:00,33.5,65,31.4,27.2
 2003/09/01,17:15,33.5,65,31.4,27.3
 2003/09/01,17:30,33.5,65,31.3,27.3
 2003/09/01,17:45,33.5,65,31.3,27.4
 2003/09/01,18:00,33.4,65,31.3,27.4
 2003/09/01,18:15,33.4,65,31.2,27.4
 2003/09/01,18:30,33.3,65,31.2,27.5
 2003/09/01,18:45,33.3,65,31.1,27.5
 2003/09/01,19:00,33.3,65,31.1,27.5
 2003/09/01,19:15,33.2,66,31,27.6
 2003/09/01,19:30,33.2,66,31,27.6
 2003/09/01,19:45,33.2,66,31,27.7
 2003/09/01,20:00,33.2,66,30.9,27.7
 2003/09/01,20:15,32.5,62.5,30.9,26.8
 2003/09/01,20:30,31,59,30.9,25.8
 2003/09/01,20:45,30.4,59,31,25.9
 2003/09/01,21:00,29.6,55,30.9,25.9
 2003/09/01,21:15,28.2,55,30.9,26
 2003/09/01,21:30,27.5,55,30.9,26.1
 2003/09/01,21:45,28.2,63.5,30.8,26.1
 2003/09/01,22:00,28.4,65,30.8,26.2
 2003/09/01,22:15,28.5,66,30.8,26.2
 2003/09/01,22:30,28.4,68,30.7,26.3
 2003/09/01,22:45,28.2,68,30.7,26.3
 2003/09/01,23:00,28.1,68,30.7,26.4
 2003/09/01,23:15,28.2,67.5,30.7,26.4
 2003/09/01,23:30,28.7,66,30.5,26.5
 2003/09/01,23:45,28.7,63.5,30.5,26.5
 2003/09/02, 0:00,28.6,61,30.5,26.6
 2003/09/02, 0:15,28.4,58,30.5,26.6
 2003/09/02, 0:30,28,59,30.5,26.7
 2003/09/02, 0:45,27.9,60.5,30.4,26.8
 2003/09/02, 1:00,28.1,59,30.2,26.8
 2003/09/02, 1:15,28.5,59,30.2,26.9
 2003/09/02, 1:30,28.8,60,30.1,26.9
 2003/09/02, 1:45,29,60.5,30.1,27
 2003/09/02, 2:00,29.2,62,30,27
 2003/09/02, 2:15,29.3,62.5,30,27
 2003/09/02, 2:30,29.4,63,29.9,27.1
 2003/09/02, 2:45,29.5,63,29.9,27.1
 2003/09/02, 3:00,29.5,63,29.8,27.2
 2003/09/02, 3:15,29.5,63.5,29.8,27.2
 2003/09/02, 3:30,29.5,63,29.7,27.2
 2003/09/02, 3:45,29.6,63.5,29.7,27.3
 2003/09/02, 4:00,29.6,64,29.6,27.3
 2003/09/02, 4:15,29.6,64,29.5,27.4
 2003/09/02, 4:30,29.6,64,29.5,27.4
 2003/09/02, 4:45,29.6,64,29.4,27.5
 2003/09/02, 5:00,29.6,64,29.4,27.5
 2003/09/02, 5:15,29.6,64,29.3,27.5
 2003/09/02, 5:30,29.4,69,29.3,27.5
 2003/09/02, 5:45,29.3,70,29.2,27.6
 2003/09/02, 6:00,29.2,71,29.1,27.6
 2003/09/02, 6:15,29.2,70.5,29.1,27.6
 2003/09/02, 6:30,29.3,70,29.1,27.7
 2003/09/02, 6:45,29,72,29,27.7
 2003/09/02, 7:00,29.2,74,28.9,27.7
 2003/09/02, 7:15,29,75,29,27.8
 2003/09/02, 7:30,29,78,28.8,27.8
 2003/09/02, 7:45,29.1,77,28.9,27.9
 2003/09/02, 8:00,29.1,78,28.8,27.9
 2003/09/02, 8:15,28.5,75.5,29,27.9
 2003/09/02, 8:30,28.4,74,29,27.9
 2003/09/02, 8:45,28.2,73,29,27.9
 2003/09/02, 9:00,28.1,73,29.1,27.9
 2003/09/02, 9:15,28.5,77.5,29.1,28
 2003/09/02, 9:30,28.8,78,29.3,28
 2003/09/02, 9:45,29.1,77.5,29.4,28
 2003/09/02,10:00,29.4,77,29.5,28
 2003/09/02,10:15,29.7,76,29.6,28
 2003/09/02,10:30,29.8,75,29.8,28.1
 2003/09/02,10:45,30,74.5,29.9,28
 2003/09/02,11:00,30.3,74,30,28.1
 2003/09/02,11:15,30.5,74,30.2,28.1
 2003/09/02,11:30,30.6,74,30.4,28.1
 2003/09/02,11:45,30.8,73.5,30.3,28.1
 2003/09/02,12:00,30.9,73,30.3,28.2
 2003/09/02,12:15,31,72,30.5,28.2
 2003/09/02,12:30,31.2,72,30.5,28.2
 2003/09/02,12:45,31.5,71.5,30.6,28.2
 2003/09/02,13:00,31.6,70,30.6,28.2
 2003/09/02,13:15,31.8,70,30.7,28.2
 2003/09/02,13:30,32,69,30.8,28.3
 2003/09/02,13:45,32,70,30.9,28.3
 2003/09/02,14:00,32.2,69,30.9,28.3
 2003/09/02,14:15,32.3,69,31,28.4
 2003/09/02,14:30,32.5,69,31.1,28.4
 2003/09/02,14:45,32.5,69,31.1,28.4
 2003/09/02,15:00,32.6,68,31.1,28.4
 2003/09/02,15:15,32.8,68,31.2,28.5
 2003/09/02,15:30,32.9,68,31.3,28.4
 2003/09/02,15:45,33,68,31.3,28.5
 2003/09/02,16:00,33.1,68,31.4,28.5
 2003/09/02,16:15,33.1,68,31.4,28.5
 2003/09/02,16:30,33.1,68,31.4,28.6
 2003/09/02,16:45,33.2,68,31.5,28.6
 2003/09/02,17:00,33.3,68,31.5,28.6
 2003/09/02,17:15,33.3,68,31.5,28.6
 2003/09/02,17:30,33.3,68,31.5,28.6
 2003/09/02,17:45,33.3,67.5,31.5,28.7
 2003/09/02,18:00,33.4,68,31.5,28.7
 2003/09/02,18:15,33.4,67.5,31.5,28.7
 2003/09/02,18:30,33.4,67,31.4,28.7
 2003/09/02,18:45,33.3,67.5,31.4,28.8
 2003/09/02,19:00,33.3,68,31.4,28.8
 2003/09/02,19:15,33.3,68,31.3,28.9
 2003/09/02,19:30,33.3,68,31.3,28.9
 2003/09/02,19:45,33.3,68,31.3,28.9
 2003/09/02,20:00,33.2,68,31.3,28.9
 2003/09/02,20:15,33.2,68,31.2,28.9
 2003/09/02,20:30,33.2,68,31.2,28.9
 2003/09/02,20:45,33.2,68,31.1,29
 2003/09/02,21:00,33.2,68,31.1,29
 2003/09/02,21:15,33,65.5,31.1,29
 2003/09/02,21:30,32,63,31.1,29.1
 2003/09/02,21:45,31.6,60,31.1,29.1
 2003/09/02,22:00,-9.9,-9.9,31.1,29.1
 2003/09/02,22:15,30.8,57,31.1,-9.9
 2003/09/02,22:30,29.4,56,30.9,-9.9
 2003/09/02,22:45,29,54.5,31,-9.9
 2003/09/02,23:00,28.8,54,30.8,-9.9
 2003/09/02,23:15,30.1,54.5,30.9,-9.9
 2003/09/02,23:30,30.6,57,30.7,-9.9
 2003/09/02,23:45,30.8,57,30.7,-9.9
 2003/09/03, 0:00,30.9,57,30.7,-9.9
 2003/09/03, 0:15,31,57,30.6,-9.9
 2003/09/03, 0:30,31,57,30.4,-9.9
 2003/09/03, 0:45,31,57,30.4,-9.9
 2003/09/03, 1:00,31,57,30.4,-9.9
 2003/09/03, 1:15,31,57,30.2,-9.9
 2003/09/03, 1:30,31,57,30.1,-9.9
 2003/09/03, 1:45,31,57,30,-9.9
 2003/09/03, 2:00,31,57,30,-9.9
 2003/09/03, 2:15,31,57.5,29.9,-9.9
 2003/09/03, 2:30,31,58,29.9,-9.9
 2003/09/03, 2:45,31,58,29.8,-9.9
 2003/09/03, 3:00,31,58,29.8,-9.9
 2003/09/03, 3:15,30.9,58,29.6,-9.9
 2003/09/03, 3:30,30.9,59,29.5,-9.9
 2003/09/03, 3:45,30.9,59,29.5,-9.9
 2003/09/03, 4:00,30.8,59,29.5,-9.9
 2003/09/03, 4:15,30.8,59,29.5,-9.9
 2003/09/03, 4:30,30.8,59,29.3,-9.9
 2003/09/03, 4:45,30.8,60,29.3,-9.9
 2003/09/03, 5:00,30.8,60,29.2,-9.9
 2003/09/03, 5:15,30.8,61,29.1,-9.9
 2003/09/03, 5:30,30.8,61,28.9,-9.9
 2003/09/03, 5:45,30.8,61,28.9,-9.9
 2003/09/03, 6:00,30.7,61,29,-9.9
 2003/09/03, 6:15,30.6,62,28.9,-9.9
 2003/09/03, 6:30,30.6,62,28.8,-9.9
 2003/09/03, 6:45,30.2,66.5,28.9,-9.9
 2003/09/03, 7:00,30.1,71,29.1,-9.9
 2003/09/03, 7:15,30.1,69.5,29.2,-9.9
 2003/09/03, 7:30,30.1,71,29.3,-9.9
 2003/09/03, 7:45,30.4,69.5,29.2,-9.9
 2003/09/03, 8:00,30.5,68,29.3,-9.9
 2003/09/03, 8:15,30.6,66.5,29.4,-9.9
 2003/09/03, 8:30,30.8,66,29.4,-9.9
 2003/09/03, 8:45,31,65,29.5,-9.9
 2003/09/03, 9:00,31.1,65,29.6,-9.9
 2003/09/03, 9:15,31.2,65,29.7,-9.9
 2003/09/03, 9:30,31.3,65,29.8,-9.9
 2003/09/03, 9:45,31.5,64.5,29.9,-9.9
 2003/09/03,10:00,31.6,64,30,-9.9
 2003/09/03,10:15,31.6,64.5,30.1,-9.9
 2003/09/03,10:30,31.9,64,30.4,-9.9
 2003/09/03,10:45,32,64,30.5,-9.9
 2003/09/03,11:00,32.3,63,30.7,-9.9
 2003/09/03,11:15,32.3,63.5,30.7,-9.9
 2003/09/03,11:30,32.4,64,30.7,-9.9
 2003/09/03,11:45,32.5,64,30.7,-9.9
 2003/09/03,12:00,32.5,64,30.7,-9.9
 2003/09/03,12:15,32.8,63,30.9,-9.9
 2003/09/03,12:30,33,62,31,-9.9
 2003/09/03,12:45,33.2,62.5,31.1,-9.9
 2003/09/03,13:00,33.5,61,31.2,-9.9
 2003/09/03,13:15,33.7,61,31.3,-9.9
 2003/09/03,13:30,33.8,61,31.4,-9.9
 2003/09/03,13:45,33.9,60.5,31.5,-9.9
 2003/09/03,14:00,34,60,31.5,-9.9
 2003/09/03,14:15,34,60,31.6,-9.9
 2003/09/03,14:30,34.1,60,31.6,-9.9
 2003/09/03,14:45,34.1,60,31.6,-9.9
 2003/09/03,15:00,34.2,60,31.7,-9.9
 2003/09/03,15:15,34.2,60,31.8,-9.9
 2003/09/03,15:30,34.3,60,31.8,-9.9
 2003/09/03,15:45,34.3,60,31.8,-9.9
 2003/09/03,16:00,34.4,60,31.9,-9.9
 2003/09/03,16:15,34.4,60,31.9,-9.9
 2003/09/03,16:30,34.4,60,31.9,-9.9
 2003/09/03,16:45,34.4,60,31.8,-9.9
 2003/09/03,17:00,34.4,60,31.8,-9.9
 2003/09/03,17:15,34.3,60,31.8,-9.9
 2003/09/03,17:30,34.2,60,31.7,-9.9
 2003/09/03,17:45,34.2,59.5,31.6,-9.9
 2003/09/03,18:00,34.1,60,31.6,-9.9
 2003/09/03,18:15,34,60,31.5,-9.9
 2003/09/03,18:30,34,60,31.5,-9.9
 2003/09/03,18:45,34,60,31.4,-9.9
 2003/09/03,19:00,33.9,60,31.4,-9.9
 2003/09/03,19:15,33.8,60,31.4,-9.9
 2003/09/03,19:30,33.8,60,31.3,-9.9
 2003/09/03,19:45,33.8,60,31.2,-9.9
 2003/09/03,20:00,33.6,60,31.2,-9.9
 2003/09/03,20:15,33.6,60,31,-9.9
 2003/09/03,20:30,33.6,60,31,-9.9
 2003/09/03,20:45,33.5,60,31,28.4
 2003/09/03,21:00,33.5,60,30.9,27.7
 2003/09/03,21:15,33.4,60.5,30.9,27.2
 2003/09/03,21:30,33.3,61,30.8,27.3
 2003/09/03,21:45,33.3,61,30.7,27.1
 2003/09/03,22:00,33.3,61,30.7,27.1
 2003/09/03,22:15,33.2,61,30.6,27.4
 2003/09/03,22:30,33.1,61,30.6,27.9
 2003/09/03,22:45,32.8,60,30.5,27.6
 2003/09/03,23:00,31.9,56,30.7,27.8
 2003/09/03,23:15,30.8,52.5,30.6,28.5
 2003/09/03,23:30,29.8,49,30.6,-9.9
 2003/09/03,23:45,29.3,50,30.4,-9.9
 2003/09/04, 0:00,28.9,51,30.4,-9.9
 2003/09/04, 0:15,28.9,52,30.4,-9.9
 2003/09/04, 0:30,29.3,52,30.4,-9.9
 2003/09/04, 0:45,29.5,51.5,30.4,-9.9
 2003/09/04, 1:00,29.9,54,30.3,-9.9
 2003/09/04, 1:15,30.2,56.5,30.2,-9.9
 2003/09/04, 1:30,30.4,58,30.2,-9.9
 2003/09/04, 1:45,30.5,58,30.1,-9.9
 2003/09/04, 2:00,30.5,58,30.1,-9.9
 2003/09/04, 2:15,30.6,59,30,-9.9
 2003/09/04, 2:30,30.7,59,30,-9.9
 2003/09/04, 2:45,30.7,59.5,30,-9.9
 2003/09/04, 3:00,30.7,60,29.9,-9.9
 2003/09/04, 3:15,30.7,60,29.9,-9.9
 2003/09/04, 3:30,30.7,60,29.9,-9.9
 2003/09/04, 3:45,30.8,61,29.8,-9.9
 2003/09/04, 4:00,30.8,60,29.7,-9.9
 2003/09/04, 4:15,30.8,60.5,29.7,-9.9
 2003/09/04, 4:30,30.7,61,29.6,-9.9
 2003/09/04, 4:45,30.7,62,29.5,-9.9
 2003/09/04, 5:00,30.6,62,29.4,-9.9
 2003/09/04, 5:15,30.6,63,29.4,-9.9
 2003/09/04, 5:30,30.5,63,29.3,-9.9
 2003/09/04, 5:45,30.5,63,29.3,-9.9
 2003/09/04, 6:00,30.5,63,29.3,-9.9
 2003/09/04, 6:15,30.5,63.5,29.3,-9.9
 2003/09/04, 6:30,30.4,64,29.3,-9.9
 2003/09/04, 6:45,30.2,64.5,29.1,-9.9
 2003/09/04, 7:00,30.1,66,29,-9.9
 2003/09/04, 7:15,29.8,66,29,-9.9
 2003/09/04, 7:30,29.8,66,28.9,-9.9
 2003/09/04, 7:45,29.8,70,28.8,-9.9
 2003/09/04, 8:00,29.7,72,28.9,-9.9
 2003/09/04, 8:15,29,64,29,-9.9
 2003/09/04, 8:30,28,62,29.2,-9.9
 2003/09/04, 8:45,27.3,61.5,29.3,-9.9
 2003/09/04, 9:00,27.5,65,29.3,-9.9
 2003/09/04, 9:15,28.5,68,29.5,-9.9
 2003/09/04, 9:30,29.2,69,29.6,-9.9
 2003/09/04, 9:45,29.6,69,29.8,-9.9
 2003/09/04,10:00,29.7,71,29.8,-9.9
 2003/09/04,10:15,29.9,70.5,30,-9.9
 2003/09/04,10:30,30.1,70,30.1,-9.9
 2003/09/04,10:45,30.4,69.5,30.2,-9.9
 2003/09/04,11:00,30.5,68,30.2,-9.9
 2003/09/04,11:15,30.8,67.5,30.4,-9.9
 2003/09/04,11:30,31,66,30.5,-9.9
 2003/09/04,11:45,31.2,65,30.6,-9.9
 2003/09/04,12:00,31.4,65,30.7,-9.9
 2003/09/04,12:15,31.5,64,30.7,-9.9
 2003/09/04,12:30,31.6,63,30.7,-9.9
 2003/09/04,12:45,31.9,63.5,30.8,-9.9
 2003/09/04,13:00,32.1,63,30.8,-9.9
 2003/09/04,13:15,32.3,62.5,31,-9.9
 2003/09/04,13:30,32.5,62,31,-9.9
 2003/09/04,13:45,32.5,61.5,31,-9.9
 2003/09/04,14:00,32.6,62,31.1,-9.9
 2003/09/04,14:15,32.8,61.5,31,-9.9
 2003/09/04,14:30,32.8,61,31.1,-9.9
 2003/09/04,14:45,33,60.5,31.1,-9.9
 2003/09/04,15:00,33,60,31.2,-9.9
 2003/09/04,15:15,33.1,60.5,31.1,-9.9
 2003/09/04,15:30,33.1,60,31.2,-9.9
 2003/09/04,15:45,33.2,60,31.2,-9.9
 2003/09/04,16:00,33.3,59,31.2,-9.9
 2003/09/04,16:15,33.3,59,31.2,-9.9
 2003/09/04,16:30,33.3,58,31.2,-9.9
 2003/09/04,16:45,33.3,57,31.2,-9.9
 2003/09/04,17:00,33.3,57,31.2,-9.9
 2003/09/04,17:15,33.2,57.5,31.1,-9.9
 2003/09/04,17:30,33.3,57,31.1,-9.9
 2003/09/04,17:45,33.2,57.5,31,-9.9
 2003/09/04,18:00,33.2,56,30.9,-9.9
 2003/09/04,18:15,33.2,56,30.8,-9.9
 2003/09/04,18:30,33.1,57,30.8,-9.9
 2003/09/04,18:45,33,57,30.6,-9.9
 2003/09/04,19:00,33,57,30.6,-9.9
 2003/09/04,19:15,32.9,57,30.5,-9.9
 2003/09/04,19:30,32.8,57,30.4,-9.9
 2003/09/04,19:45,32.7,56.5,30.4,-9.9
 2003/09/04,20:00,32.7,57,30.2,-9.9
 2003/09/04,20:15,32.5,57,30.1,-9.9
 2003/09/04,20:30,32.5,57,30,-9.9
 2003/09/04,20:45,32.5,57,30,-9.9
 2003/09/04,21:00,32.4,57,29.9,-9.9
 2003/09/04,21:15,32.2,56,29.8,-9.9
 2003/09/04,21:30,31.3,51,29.5,-9.9
 2003/09/04,21:45,30.4,52.5,29.1,-9.9
 2003/09/04,22:00,30.1,53,29.1,-9.9
 2003/09/04,22:15,30.8,56.5,29.4,-9.9
 2003/09/04,22:30,29.9,53,29.2,-9.9
 2003/09/04,22:45,28.9,52,29.1,-9.9
 2003/09/04,23:00,28.6,51,29.1,-9.9
 2003/09/04,23:15,28.1,50,29,-9.9
 2003/09/04,23:30,27.6,50,29,-9.9
 2003/09/04,23:45,27.1,49,29,-9.9
 2003/09/05, 0:00,27.3,55,29.2,-9.9
 2003/09/05, 0:15,27.5,57,29.1,-9.9
 2003/09/05, 0:30,27.7,58,28.6,-9.9
 2003/09/05, 0:45,27.5,56.5,28.4,-9.9
 2003/09/05, 1:00,27.9,57,28.3,-9.9
 2003/09/05, 1:15,28.2,57.5,28.1,-9.9
 2003/09/05, 1:30,28.5,58,28,-9.9
 2003/09/05, 1:45,28.5,57.5,28,-9.9
 2003/09/05, 2:00,28.6,58,27.9,-9.9
 2003/09/05, 2:15,28.7,58,27.8,-9.9
 2003/09/05, 2:30,28.8,58,27.8,-9.9
 2003/09/05, 2:45,28.8,58,27.6,-9.9
 2003/09/05, 3:00,28.8,58,27.6,-9.9
 2003/09/05, 3:15,28.8,58.5,27.5,-9.9
 2003/09/05, 3:30,28.8,59,27.4,-9.9
 2003/09/05, 3:45,28.8,59,27.2,-9.9
 2003/09/05, 4:00,28.8,59,27.1,-9.9
 2003/09/05, 4:15,28.8,59,27.1,-9.9
 2003/09/05, 4:30,28.8,59,27.1,-9.9
 2003/09/05, 4:45,28.8,60,27.1,-9.9
 2003/09/05, 5:00,28.7,60,27,-9.9
 2003/09/05, 5:15,28.6,60,27,-9.9
 2003/09/05, 5:30,28.6,60,26.7,-9.9
 2003/09/05, 5:45,28.6,60.5,26.7,-9.9
 2003/09/05, 6:00,28.6,61,26.7,-9.9
 2003/09/05, 6:15,28.5,60.5,26.6,-9.9
 2003/09/05, 6:30,28.5,62,26.7,-9.9
 2003/09/05, 6:45,28.4,62.5,26.9,-9.9
 2003/09/05, 7:00,28.3,64,27,-9.9
 2003/09/05, 7:15,28.6,64,27,-9.9
 2003/09/05, 7:30,28.8,64,27.2,-9.9
 2003/09/05, 7:45,28.8,63.5,27.2,-9.9
 2003/09/05, 8:00,28.9,63,27.3,-9.9
 2003/09/05, 8:15,29,62.5,27.4,-9.9
 2003/09/05, 8:30,29.1,62,27.4,-9.9
 2003/09/05, 8:45,29.2,62,27.5,-9.9
 2003/09/05, 9:00,29.4,62,27.6,-9.9
 2003/09/05, 9:15,29.3,62,27.6,-9.9
 2003/09/05, 9:30,29.4,62,27.7,-9.9
 2003/09/05, 9:45,29.5,61,27.8,-9.9
 2003/09/05,10:00,29.6,61,27.9,-9.9
 2003/09/05,10:15,29.9,60.5,28,-9.9
 2003/09/05,10:30,30.1,60,28.1,-9.9
 2003/09/05,10:45,30.1,60,28.2,-9.9
 2003/09/05,11:00,30.4,59,28.3,-9.9
 2003/09/05,11:15,30.6,59,28.5,-9.9
 2003/09/05,11:30,30.8,59,28.8,-9.9
 2003/09/05,11:45,30.9,59,28.9,-9.9
 2003/09/05,12:00,31.1,59,29,-9.9
 2003/09/05,12:15,31.1,59,29,-9.9
 2003/09/05,12:30,31.1,59,29.1,-9.9
 2003/09/05,12:45,31.3,59,29.1,-9.9
 2003/09/05,13:00,31.4,59,29.1,-9.9
 2003/09/05,13:15,31.5,59,29.2,-9.9
 2003/09/05,13:30,31.5,59,29.2,-9.9
 2003/09/05,13:45,31.5,59,29.2,-9.9
 2003/09/05,14:00,31.7,59,29.3,-9.9
 2003/09/05,14:15,31.7,59,29.4,-9.9
 2003/09/05,14:30,31.8,59,29.4,-9.9
 2003/09/05,14:45,31.9,59,29.5,-9.9
 2003/09/05,15:00,31.9,59,29.5,-9.9
 2003/09/05,15:15,32,58.5,29.6,-9.9
 2003/09/05,15:30,32.1,59,29.7,-9.9
 2003/09/05,15:45,32.1,59,29.7,-9.9
 2003/09/05,16:00,32.1,59,29.7,-9.9
 2003/09/05,16:15,32.2,59,29.8,-9.9
 2003/09/05,16:30,32.2,59,29.8,-9.9
 2003/09/05,16:45,32.2,59,29.9,-9.9
 2003/09/05,17:00,32.2,59,29.8,-9.9
 2003/09/05,17:15,32.2,59,29.9,-9.9
 2003/09/05,17:30,32.2,59,29.8,-9.9
 2003/09/05,17:45,32.2,59,29.8,-9.9
 2003/09/05,18:00,32.1,59,29.8,-9.9
 2003/09/05,18:15,32.1,59,29.8,-9.9
 2003/09/05,18:30,32.1,59,29.7,-9.9
 2003/09/05,18:45,32,60,29.7,-9.9
 2003/09/05,19:00,32,60,29.7,-9.9
 2003/09/05,19:15,31.9,60,29.7,-9.9
 2003/09/05,19:30,31.9,60,29.7,-9.9
 2003/09/05,19:45,31.8,60.5,29.6,-9.9
 2003/09/05,20:00,31.8,61,29.6,-9.9
 2003/09/05,20:15,31.8,61,29.6,-9.9
 2003/09/05,20:30,31.7,61,29.5,-9.9
 2003/09/05,20:45,31.7,61,29.6,-9.9
 2003/09/05,21:00,31.7,61,29.6,-9.9
 2003/09/05,21:15,31.6,61,29.6,-9.9
 2003/09/05,21:30,31.5,61,29.5,-9.9
 2003/09/05,21:45,31.5,62,29.5,-9.9
 2003/09/05,22:00,31.6,62,29.5,-9.9
 2003/09/05,22:15,31.5,62,29.5,-9.9
 2003/09/05,22:30,31.5,62,29.5,-9.9
 2003/09/05,22:45,31.4,62,29.4,-9.9
 2003/09/05,23:00,31.2,61,29.3,-9.9
 2003/09/05,23:15,29.9,55,29.4,-9.9
 2003/09/05,23:30,28.9,53,29.4,-9.9
 2003/09/05,23:45,28.5,51.5,29.4,-9.9
 2003/09/06, 0:00,28.9,56,29.4,-9.9
 2003/09/06, 0:15,28.9,57.5,29.3,-9.9
 2003/09/06, 0:30,28.6,57,29.3,-9.9
 2003/09/06, 0:45,28,55,29.3,-9.9
 2003/09/06, 1:00,27.7,55,29.3,-9.9
 2003/09/06, 1:15,27.5,55,29.3,-9.9
 2003/09/06, 1:30,27.1,56,29.2,-9.9
 2003/09/06, 1:45,27.1,57.5,29.2,-9.9
 2003/09/06, 2:00,27.1,59,29.2,-9.9
 2003/09/06, 2:15,27.9,57.5,28.9,-9.9
 2003/09/06, 2:30,28.1,57,28.8,-9.9
 2003/09/06, 2:45,28.4,57,28.8,-9.9
 2003/09/06, 3:00,28.4,57,28.7,-9.9
 2003/09/06, 3:15,28.5,57,28.6,-9.9
 2003/09/06, 3:30,28.6,57,28.4,-9.9
 2003/09/06, 3:45,28.6,57,28.4,-9.9
 2003/09/06, 4:00,28.7,57,28.2,-9.9
 2003/09/06, 4:15,28.7,57,28.2,-9.9
 2003/09/06, 4:30,28.8,57,28.2,-9.9
 2003/09/06, 4:45,28.8,57,28,-9.9
 2003/09/06, 5:00,28.8,57,27.9,-9.9
 2003/09/06, 5:15,28.8,56.5,27.9,-9.9
 2003/09/06, 5:30,28.6,57,27.7,-9.9
 2003/09/06, 5:45,28.4,55,27.8,-9.9
 2003/09/06, 6:00,28.3,56,27.8,-9.9
 2003/09/06, 6:15,28.2,56,27.6,-9.9
 2003/09/06, 6:30,28.2,56,27.6,-9.9
 2003/09/06, 6:45,28.1,57,27.7,-9.9
 2003/09/06, 7:00,28.1,57,27.7,-9.9
 2003/09/06, 7:15,28.1,57,27.8,-9.9
 2003/09/06, 7:30,28.1,57,27.9,-9.9
 2003/09/06, 7:45,28.2,58,28,-9.9
 2003/09/06, 8:00,28.3,60,28.1,-9.9
 2003/09/06, 8:15,28.5,63.5,28.1,-9.9
 2003/09/06, 8:30,29,68,28.2,-9.9
 2003/09/06, 8:45,29.5,69.5,28.2,-9.9
 2003/09/06, 9:00,29.7,68,28.3,-9.9
 2003/09/06, 9:15,29.9,66,28.5,-9.9
 2003/09/06, 9:30,29.9,63,28.6,-9.9
 2003/09/06, 9:45,29.9,62,28.8,-9.9
 2003/09/06,10:00,29.9,59,28.9,-9.9
 2003/09/06,10:15,30.5,63,29.1,-9.9
 2003/09/06,10:30,30.3,65,29.3,-9.9
 2003/09/06,10:45,29.9,64,29.5,-9.9
 2003/09/06,11:00,28.6,58,29.5,-9.9
 2003/09/06,11:15,28.5,58.5,29.6,-9.9
 2003/09/06,11:30,27.7,54,29.8,-9.9
 2003/09/06,11:45,27.1,52.5,30,-9.9
 2003/09/06,12:00,26.7,52,30.2,-9.9
 2003/09/06,12:15,26.4,51.5,30.1,-9.9
 2003/09/06,12:30,26.3,52,30.2,-9.9
 2003/09/06,12:45,26.6,57,30.2,-9.9
 2003/09/06,13:00,26.7,59,30,-9.9
 2003/09/06,13:15,27,59,29.7,-9.9
 2003/09/06,13:30,27.4,60,29.7,-9.9
 2003/09/06,13:45,28.1,64,29.7,-9.9
 2003/09/06,14:00,28.6,65,29.8,-9.9
 2003/09/06,14:15,28.8,67,29.6,-9.9
 2003/09/06,14:30,29,68,29.6,-9.9
 2003/09/06,14:45,29,67.5,29.7,-9.9
 2003/09/06,15:00,29.3,67,29.7,-9.9
 2003/09/06,15:15,29.4,67.5,29.6,-9.9
 2003/09/06,15:30,29.5,68,29.6,-9.9
 2003/09/06,15:45,29.5,67.5,29.5,-9.9
 2003/09/06,16:00,29.6,68,29.6,-9.9
 2003/09/06,16:15,29.7,68,29.5,-9.9
 2003/09/06,16:30,29.7,68,29.5,-9.9
 2003/09/06,16:45,29.7,67.5,29.6,-9.9
 2003/09/06,17:00,29.4,63,29.6,-9.9
 2003/09/06,17:15,28.9,60.5,29.6,-9.9
 2003/09/06,17:30,28.1,59,29.5,-9.9
 2003/09/06,17:45,28,61,29.5,-9.9
 2003/09/06,18:00,28.3,66,29.5,-9.9
 2003/09/06,18:15,28.3,68.5,29.5,-9.9
 2003/09/06,18:30,28.2,68,29.4,-9.9
 2003/09/06,18:45,28.3,70.5,29.4,-9.9
 2003/09/06,19:00,28.4,69,29.3,-9.9
 2003/09/06,19:15,28.4,68,29.3,-9.9
 2003/09/06,19:30,28.5,69,29.3,-9.9
 2003/09/06,19:45,28.4,68.5,29.2,-9.9
 2003/09/06,20:00,28.3,69,29.2,-9.9
 2003/09/06,20:15,28.3,69.5,29.2,-9.9
 2003/09/06,20:30,28.3,70,29.2,-9.9
 2003/09/06,20:45,28.3,70,29.1,-9.9
 2003/09/06,21:00,28.3,67,29.1,-9.9
 2003/09/06,21:15,28.3,67.5,29,-9.9
 2003/09/06,21:30,28.3,68,29,-9.9
 2003/09/06,21:45,27.8,66,29,-9.9
 2003/09/06,22:00,28,67,29,-9.9
 2003/09/06,22:15,28.1,69,28.9,-9.9
 2003/09/06,22:30,28.2,69,28.8,-9.9
 2003/09/06,22:45,28,68,28.8,-9.9
 2003/09/06,23:00,27.8,68,28.9,-9.9
 2003/09/06,23:15,27.5,66.5,28.9,-9.9
 2003/09/06,23:30,27.7,68,28.8,-9.9
 2003/09/06,23:45,27.4,66.5,28.8,-9.9
 2003/09/07, 0:00,27.3,67,28.8,-9.9
 2003/09/07, 0:15,27.5,66.5,28.8,-9.9
 2003/09/07, 0:30,27.9,67,28.7,-9.9
 2003/09/07, 0:45,28,65.5,28.6,-9.9
 2003/09/07, 1:00,28.1,65,28.6,-9.9
 2003/09/07, 1:15,28.1,65,28.6,-9.9
 2003/09/07, 1:30,28.1,65,28.5,-9.9
 2003/09/07, 1:45,28.1,65,28.5,-9.9
 2003/09/07, 2:00,28.2,65,28.4,-9.9
 2003/09/07, 2:15,28.2,65.5,28.5,-9.9
 2003/09/07, 2:30,28.3,65,28.4,-9.9
 2003/09/07, 2:45,28.2,65,28.3,-9.9
 2003/09/07, 3:00,28.2,65,28.3,-9.9
 2003/09/07, 3:15,28.2,65.5,28.2,-9.9
 2003/09/07, 3:30,28.2,66,28.2,-9.9
 2003/09/07, 3:45,28.2,65.5,28.2,-9.9
 2003/09/07, 4:00,28.3,66,28.2,-9.9
 2003/09/07, 4:15,28.3,65,28.1,-9.9
 2003/09/07, 4:30,28.2,65,28.1,-9.9
 2003/09/07, 4:45,28.2,65.5,28,-9.9
 2003/09/07, 5:00,28.2,65,28,-9.9
 2003/09/07, 5:15,28.2,65.5,28,-9.9
 2003/09/07, 5:30,28.2,66,27.9,-9.9
 2003/09/07, 5:45,28.2,65,27.9,-9.9
 2003/09/07, 6:00,28.2,65,27.9,-9.9
 2003/09/07, 6:15,28.2,65,27.9,-9.9
 2003/09/07, 6:30,28.2,65,27.9,-9.9
 2003/09/07, 6:45,28.2,65,27.8,-9.9
 2003/09/07, 7:00,28.3,66,27.9,-9.9
 2003/09/07, 7:15,28.3,65.5,27.8,-9.9
 2003/09/07, 7:30,28.4,66,27.8,-9.9
 2003/09/07, 7:45,28.5,66.5,27.6,-9.9
 2003/09/07, 8:00,28.6,66,27.7,-9.9
 2003/09/07, 8:15,28.6,65.5,27.6,-9.9
 2003/09/07, 8:30,28.8,65,27.6,-9.9
 2003/09/07, 8:45,28.9,64,27.7,-9.9
 2003/09/07, 9:00,29,64,27.8,-9.9
 2003/09/07, 9:15,29.1,63,27.9,-9.9
 2003/09/07, 9:30,29.3,63,27.9,-9.9
 2003/09/07, 9:45,29.5,62.5,28.1,-9.9
 2003/09/07,10:00,29.7,62,28.2,-9.9
 2003/09/07,10:15,29.9,61.5,28.5,-9.9
 2003/09/07,10:30,29.9,61,28.7,-9.9
 2003/09/07,10:45,30.1,61,28.9,-9.9
 2003/09/07,11:00,30.4,60,28.9,-9.9
 2003/09/07,11:15,30.6,59.5,29.1,-9.9
 2003/09/07,11:30,31.1,60,29.2,-9.9
 2003/09/07,11:45,31.4,58.5,29.4,-9.9
 2003/09/07,12:00,31.4,58,29.4,-9.9
 2003/09/07,12:15,31.5,57.5,29.3,-9.9
 2003/09/07,12:30,31.9,55,29.4,-9.9
 2003/09/07,12:45,31.1,52.5,29.6,-9.9
 2003/09/07,13:00,30.4,51,29.9,-9.9
 2003/09/07,13:15,29.7,48,29.9,-9.9
 2003/09/07,13:30,29.4,47,29.8,-9.9
 2003/09/07,13:45,29,48,29.6,-9.9
 2003/09/07,14:00,29.8,53,29.7,-9.9
 2003/09/07,14:15,30.4,54,29.8,-9.9
 2003/09/07,14:30,30.7,55,29.7,-9.9
 2003/09/07,14:45,30.9,56,29.8,-9.9
 2003/09/07,15:00,31.1,57,29.7,-9.9
 2003/09/07,15:15,31.2,57,29.8,-9.9
 2003/09/07,15:30,31.4,57,29.8,-9.9
 2003/09/07,15:45,31.5,57,29.9,-9.9
 2003/09/07,16:00,31.6,58,29.9,-9.9
 2003/09/07,16:15,31.6,58,30,-9.9
 2003/09/07,16:30,31.7,58,30.1,-9.9
 2003/09/07,16:45,30.5,51.5,30,-9.9
 2003/09/07,17:00,30.2,50,30.1,-9.9
 2003/09/07,17:15,29.8,48,30.1,-9.9
 2003/09/07,17:30,29.3,47,30.1,-9.9
 2003/09/07,17:45,28.4,45,30.1,-9.9